OBJECT L, 54692

Orbit data source: Space-Track

You're viewing an Uncataloged Satellite

Recently launched and/or uncataloged satellites may have evolving metadata. Metadata may include but not limited to: Owner, Maufacturer, Bus, Motor, and Mission.

OBJECT L, 54692 is a satellite owned by Changguang WJ (CN) in SSO that was launched on Fri, 09 Dec 2022 UTC via a JIELONG-3 launch vehicle from the Yellow Sea Launch Area, China (YSLA). Unknown objects in Earth's orbit typically refer to objects detected orbiting the Earth but have not yet been identified or cataloged. These objects could be anything from previously untracked satellites, spent rocket stages, debris from satellite collisions, or even natural meteoroids temporarily captured by Earth's gravity.

Loading next visibility...
Identifier
54692, 2022-167L
Orbit
SSO
Country
Flag of CNCN / PRC
Related business
Manufacturer
Changguang WJ
Mission
Operational Commercial Imaging
Bus & Motor
JL-1, Unknown motor
Mass
42 kg wet, 42 kg dry
Launch date (UTC)
2022-12-09 (4 years ago)
Launch vehicle
JIELONG-3
Launch site
Yellow Sea Launch Area, China (YSLA)
Object type
Unknown
Shape & HBR
Box + 2 Pan, 0.8 m
Radar Cross Section
2.000 m², Medium (>0.1 m² and < 1m²)

Expand to show TLE details & history
Last TLE update: 21 hours ago

TLE from 21 hours ago
0 OBJECT L
1 54692U 22167L   26172.55565823  .00008943  00000-0  27507-3 0  9999
2 54692  97.6940 342.3103 0008887 102.8072 257.4163 15.33885789196012
Epoch: 2026-06-21T13:20Z
TLE epoch observation values (Epoch: 2026-06-21T13:20:08.871Z)
Latitude
-0.00003°
Longitude
-127.4809°
Altitude
468.663 km
Speed
7.631 km/s
True Right ascension
22h 49m 14s
True Declination
0° 00' 00"
Sunlit
Object was in daylight at epoch
Visualization orbit readout
Latitude
Unknown
Longitude
Unknown
Altitude
Unknown
Speed
Unknown
Apparent Right ascension
Unknown
Apparent Declination
Unknown
Sunlit
N/A
Visualization observer readout
Local Sidereal Time
21:28:09
Azimuth
Unknown
Elevation
Unknown
Doppler factor
Unknown
Orbital elements
Apogee altitude
467.27 km
Perigee altitude
455.114 km
Semi-major axis
6,839.329 km
Eccentricity
0.00089
Inclination
97.694°
RAAN
342.3103°
Arg. of periapsis
102.8072°
True anomaly
257.31693°
Mean anomaly
257.4163°
Eccentric anomaly
257.36661°
Mean motion
3.83728 °/min
Orbital period
93.82 mins
BSTAR
0.00027507
Loading maneuver chart data...
Computing Atmospheric mass density...
Loading historical data...
Loading historical data...
Loading historical data...
Loading historical data...
Loading historical data...
Loading historical data...
Loading historical data...

Documentation

Showing up to 5 results
|